Kaltag, AK

3:45 AM AKST on November 21, 2017 (GMT -0900)
Kaltag

Weather History for PAKV - March, 2013

Change the Weather History Date:

Tuesday, March 12, 2013

  Actual Average (PAGA) Record (PAGA)
Temperature  
Mean Temperature 0 °F -  
Max Temperature 16 °F 14 °F 42 °F (2005)
Min Temperature -16 °F -8 °F -54 °F (1971)
Degree Days  
Heating Degree Days 65    
Moisture  
Dew Point -9 °F    
Average Humidity 73    
Maximum Humidity 88    
Minimum Humidity 49    
Precipitation  
Precipitation 0.00 in - - ()
Sea Level Pressure  
Sea Level Pressure 30.65 in    
Wind  
Wind Speed 1 mph (SW)    
Max Wind Speed 5 mph    
Max Gust Speed -    
Visibility 10 miles    
Events      
Averages and records for this station are not official NWS values.
T = Trace of Precipitation, MM = Missing Value Source: NWS Daily Summary

Daily Weather History Graph

Daily Weather History Graph

Search for Another Location

Airport or City:

Trip Planner

Search our weather history database for the weather conditions in past years. The results will help you decide how hot, cold, wet, or windy it might be!

Date:

Astronomy

Mar. 12, 2013 Rise Set
Actual Time 9:02 AM AKDT 8:28 PM AKDT
Civil Twilight 8:14 AM AKDT 9:16 PM AKDT
Nautical Twilight 7:18 AM AKDT 10:13 PM AKDT
Astronomical Twilight 6:16 AM AKDT 11:15 PM AKDT
Moon 8:40 AM AKDT (3/12) 10:43 PM AKDT (3/12)
Length of Visible Light 13h 01m
Length of Day
11h 25m
New Moon, 1% of the Moon is Illuminated
Mar 12
New Moon
Mar 19
First Quarter
Mar 27
Full
Apr 2
Last Quarter
Apr 10
New

Hourly Weather History & Observations

Time (AKDT) Temp. Windchill Dew Point Humidity Pressure Visibility Wind Dir Wind Speed Gust Speed Precip Events Conditions
12:53 AM -8.0 °F - -11.9 °F 83% 30.76 in 10.0 mi Calm Calm - N/A   Clear
1:53 AM -6.0 °F -14.7 °F -11.0 °F 79% 30.76 in 10.0 mi SSW 3.5 mph - N/A   Clear
2:53 AM -11.0 °F - -15.0 °F 83% 30.75 in 10.0 mi Calm Calm - N/A   Clear
3:53 AM -9.9 °F -19.2 °F -15.0 °F 78% 30.74 in 10.0 mi SW 3.5 mph - N/A   Clear
4:53 AM -9.9 °F - -16.1 °F 74% 30.74 in 10.0 mi Calm Calm - N/A   Clear
5:53 AM -11.0 °F - -16.1 °F 78% 30.74 in 10.0 mi Calm Calm - N/A   Clear
6:53 AM -16.1 °F - -20.9 °F 79% 30.73 in 10.0 mi Calm Calm - N/A   Clear
7:53 AM -11.0 °F -20.4 °F -16.1 °F 78% 30.72 in 10.0 mi SW 3.5 mph - N/A   Clear
8:53 AM -11.0 °F -20.4 °F -16.1 °F 78% 30.71 in 10.0 mi SW 3.5 mph - N/A   Clear
9:53 AM -15.0 °F -27.4 °F -20.0 °F 78% 30.70 in 10.0 mi SW 4.6 mph - N/A   Clear
10:53 AM -9.9 °F -19.2 °F -14.1 °F 82% 30.69 in 10.0 mi WSW 3.5 mph - N/A   Clear
11:53 AM -0.0 °F - -2.9 °F 88% 30.69 in 10.0 mi Calm Calm - N/A   Clear
12:53 PM 3.0 °F - -4.0 °F 73% 30.67 in 10.0 mi Calm Calm - N/A   Clear
1:53 PM 5.0 °F -2.1 °F -2.9 °F 70% 30.65 in 10.0 mi NE 3.5 mph - N/A   Clear
2:53 PM 9.0 °F - -0.9 °F 64% 30.63 in 9.0 mi Calm Calm - N/A   Clear
3:53 PM 15.1 °F - -0.9 °F 49% 30.61 in 10.0 mi Calm Calm - N/A   Clear
4:53 PM 16.0 °F - -0.0 °F 49% 30.58 in 10.0 mi Calm Calm - N/A   Clear
5:53 PM 16.0 °F - -0.0 °F 49% 30.56 in 10.0 mi Calm Calm - N/A   Clear
6:53 PM 12.0 °F 4.1 °F -0.0 °F 59% 30.53 in 10.0 mi NE 4.6 mph - N/A   Clear
7:53 PM 12.9 °F - 1.0 °F 59% 30.52 in 10.0 mi Calm Calm - N/A   Clear
8:53 PM 1.9 °F - -5.1 °F 72% 30.51 in 10.0 mi Calm Calm - N/A   Clear
9:53 PM -2.0 °F - -7.1 °F 79% 30.51 in 10.0 mi Calm Calm - N/A   Clear
10:53 PM -2.9 °F - -8.0 °F 79% 30.50 in 10.0 mi Calm Calm - N/A   Clear
11:53 PM -6.0 °F - -9.9 °F 83% 30.49 in 10.0 mi Calm Calm - N/A   Clear